Content
SEND FEEDBACK

Daily
Averages
Monthly
Summary
United Kingdom

COUNTY OAK, ENGLAND


Home > Europe > United Kingdom > England
Elevation: 203 feet     Latitude: 51 01N     Longitude: 000 10W

WEATHER
 
SELECT A DAY
Number of Records: 293,611;   Date Range: 7/1/96 - 8/18/14
 
SHARE

PRINT THIS DATA

[ ← Previous Day ]
WEATHER ALMANAC - MARCH 15, 2013
[ Next Day → ]
[ °C ]   °F
Weather ElementAverageHighLow
Temperature41.9 °F44.6 °F (10:50 am)35.6 °F (12:50 am)
Dewpoint37 °F41 °F (7:20 pm)26.6 °F (12:50 am)
Humidity82.6 %93 % (7:20 pm)70 % (12:50 am)
Barometer29.76 in29.92 in (12:50 am)29.59 in (11:20 pm)
Wind Speed11.8 mph17.3 mph (3:50 pm)
Wind Gust26.5 mph (5:20 pm)
Weather ElementAverage
Visibility6.1 mi
Wind DirectionSSW (201.1 °)

Weather ElementTotal
Precipitation---
Heating Degree Days24.9 (Base 65)
Averaged from 47 records on March 15, 2013
WEATHER CONDITIONS BREAKOUT
WIND DIRECTION BREAKOUT
WEATHER BY HOUR - MARCH 15, 2013
[ °C ]   °F
Local TimeTemperatureDewpointHumidityBarometerVisibilityWind DirectionWind SpeedGust SpeedPrecipitationEventsConditions
12:50 AM35.6 °F26.6 °F70 %29.92 inVariable3.5 mphClear
1:20 AM35.6 °F28.4 °F75 %29.92 inSSW (210°)4.6 mphClear
1:50 AM35.6 °F28.4 °F75 %29.92 inSSW (210°)5.8 mphClear
2:20 AM35.6 °F30.2 °F81 %29.89 inSSW (210°)5.8 mphClear
2:50 AM35.6 °F30.2 °F81 %29.89 inSSW (210°)4.6 mphClear
3:20 AM37.4 °F30.2 °F75 %29.89 inSSW (210°)6.9 mphClear
3:50 AM37.4 °F30.2 °F75 %29.86 inSouth (190°)4.6 mphClear
4:20 AM37.4 °F30.2 °F75 %29.86 in6.2 miSSW (200°)5.8 mphMostly Cloudy
4:50 AM37.4 °F32.0 °F81 %29.86 in6.2 miSSW (200°)8.1 mphMostly Cloudy
5:20 AM37.4 °F32.0 °F81 %29.83 in6.2 miSSW (210°)6.9 mphRainLight Rain
5:50 AM39.2 °F33.8 °F81 %29.83 in6.2 miSSW (210°)8.1 mphMostly Cloudy
6:20 AM39.2 °F33.8 °F81 %29.83 in6.2 miSSW (210°)8.1 mphPartly Cloudy
6:50 AM41.0 °F35.6 °F81 %29.83 in6.2 miSW (220°)8.1 mphRainLight Rain
7:20 AM41.0 °F37.4 °F87 %29.83 in6.2 miSW (220°)8.1 mphRainLight Rain
7:50 AM41.0 °F37.4 °F87 %29.83 in6.2 miSSW (210°)10.4 mphRainLight Rain
8:20 AM41.0 °F37.4 °F87 %29.83 in6.2 miSSW (210°)11.5 mphRainLight Rain
8:50 AM42.8 °F37.4 °F81 %29.83 in6.2 miSSW (210°)10.4 mphMostly Cloudy
9:20 AM42.8 °F37.4 °F81 %29.80 in6.2 miSSW (210°)12.7 mphMostly Cloudy
9:50 AM42.8 °F37.4 °F81 %29.80 in6.2 miSSW (210°)12.7 mphMostly Cloudy
10:20 AM42.8 °F39.2 °F87 %29.80 in6.2 miSSW (210°)12.7 mphMostly Cloudy
10:50 AM44.6 °F39.2 °F81 %29.80 in6.2 miSSW (210°)12.7 mphRainLight Rain
11:20 AM42.8 °F39.2 °F87 %29.80 in6.2 miSW (220°)15.0 mphMostly Cloudy
11:50 AM42.8 °F39.2 °F87 %29.77 in6.2 miSSW (200°)10.4 mphMostly Cloudy
12:20 PM42.8 °F39.2 °F87 %29.77 in5.6 miSSW (200°)13.8 mphRainLight Rain
12:50 PM42.8 °F39.2 °F87 %29.77 in5.6 miSSW (210°)13.8 mphRainLight Rain
1:20 PM42.8 °F39.2 °F87 %29.74 in6.2 miSSW (200°)15.0 mphMostly Cloudy
1:50 PM44.6 °F39.2 °F81 %29.74 in6.2 miSSW (210°)16.1 mphMostly Cloudy
2:20 PM44.6 °F39.2 °F81 %29.74 in6.2 miSSW (210°)15.0 mphMostly Cloudy
2:50 PM44.6 °F39.2 °F81 %29.71 in6.2 miSSW (210°)15.0 mphMostly Cloudy
3:20 PM44.6 °F39.2 °F81 %29.71 in6.2 miSSW (210°)16.1 mphMostly Cloudy
3:50 PM44.6 °F39.2 °F81 %29.71 in6.2 miSSW (210°)17.3 mphMostly Cloudy
4:20 PM44.6 °F39.2 °F81 %29.68 in6.2 miSSW (200°)16.1 mphMostly Cloudy
4:50 PM44.6 °F39.2 °F81 %29.68 in5.6 miSSW (200°)16.1 mphRainLight Rain
5:20 PM44.6 °F39.2 °F81 %29.68 in6.2 miSSW (200°)15.0 mph26.5 mphRainLight Rain
5:50 PM44.6 °F39.2 °F81 %29.68 in6.2 miSSW (200°)15.0 mphRainLight Rain
6:20 PM44.6 °F39.2 °F81 %29.68 in5.6 miSSW (200°)16.1 mphRainLight Rain
6:50 PM42.8 °F39.2 °F87 %29.68 in6.2 miSSW (200°)11.5 mphRainLight Rain
7:20 PM42.8 °F41.0 °F93 %29.65 in6.2 miSSW (200°)11.5 mphRainLight Rain
7:50 PM44.6 °F41.0 °F87 %29.65 in6.2 miSSW (200°)15.0 mphRainLight Rain
8:20 PM44.6 °F41.0 °F87 %29.65 in6.2 miSSW (200°)15.0 mphRainLight Rain
8:50 PM44.6 °F41.0 °F87 %29.65 in6.2 miSouth (190°)13.8 mphRainLight Rain
9:20 PM44.6 °F41.0 °F87 %29.62 in6.2 miSSW (200°)15.0 mphMostly Cloudy
9:50 PM44.6 °F41.0 °F87 %29.62 in6.2 miSSW (200°)15.0 mphRainLight Rain
10:20 PM44.6 °F39.2 °F81 %29.62 in5.0 miSSW (200°)15.0 mphRainLight Rain
10:50 PM44.6 °F41.0 °F87 %29.62 in6.2 miSSW (200°)15.0 mphMostly Cloudy
11:20 PM44.6 °F41.0 °F87 %29.59 in6.2 miSSW (200°)16.1 mphMostly Cloudy
11:50 PM44.6 °F39.2 °F81 %29.59 in6.2 miSSW (200°)13.8 mphMostly Cloudy
Hourly data recorded from EGKK, located miles away from County Oak, England







STORIES FROM OUR PARTNERS